Regional Weather Roundup
Issued by NWS

Home | Current Version | Previous Version | Graphics & Text | Print | Product List | Glossary On
Versions: 1 2 3 4 5 6 7 8 9 10 11 12 13 14 15 16 17 18 19 20 21 22 23 24 25 26 27 28 29 30 31 32 33 34 35 36 37 38 39 40 41 42 43 44 45 46 47 48 49 50
000
ASUS43 KBIS 071502
RWRND

NORTH DAKOTA REGIONAL WEATHER ROUNDUP
NATIONAL WEATHER SERVICE BISMARCK ND
1000 AM CDT TUE JUL 07 2015

NOTE: "FAIR" INDICATES FEW OR NO CLOUDS BELOW 12,000 FEET WITH NO
SIGNIFICANT WEATHER AND/OR OBSTRUCTIONS TO VISIBILITY.


NDZ001>003-009>011-017-071600-
NORTHWEST NORTH DAKOTA

CITY           SKY/WX    TMP DP  RH WIND       PRES   REMARKS
WILLISTON      CLOUDY    65  53  65 S9        30.10F HAZE
MINOT          SUNNY     65  49  56 S13       30.13F
$$

NDZ018>021-031>035-040>046-071600-
SOUTHWEST NORTH DAKOTA

CITY           SKY/WX    TMP DP  RH WIND       PRES   REMARKS
BISMARCK       SUNNY     64  53  67 S12       30.17F
DICKINSON      SUNNY     64  54  69 S13       30.11F HAZE
GARRISON         N/A     61  53  75 S12       30.14F
HETTINGER ARPT SUNNY     64  55  72 SE8       30.14F HAZE
$$

NDZ004>008-012>016-024-026-027-054-071600-
NORTHEAST NORTH DAKOTA

CITY           SKY/WX    TMP DP  RH WIND       PRES   REMARKS
GRAND FORKS    SUNNY     64  46  52 W8        30.18F
GRND FRKS AFB  SUNNY     65  50  58 W7        30.18F
DEVILS LAKE    SUNNY     63  48  59 SW12      30.17S
$$

NDZ022-023-025-028>030-036>039-047>053-071600-
SOUTHEAST NORTH DAKOTA

CITY           SKY/WX    TMP DP  RH WIND       PRES   REMARKS
FARGO          SUNNY     64  45  49 W3        30.21S
JAMESTOWN      SUNNY     62  48  60 VRB3      30.19F
$$



USA.gov is the U.S. government's official web portal to all federal, state and local government web resources and services.